Location: Central Coast NSW, Australia
(33.2407°S, 151.4316°E)
Time: 16:18:58
(UTC+10:00)

Envisat - Pass Details

Date: 27 March 2019
Orbit: 764 x 766 km, 98.2° (Epoch: 20 April)

Event Time Altitude Azimuth Distance (km) Brightness Sun altitude
Rises 19:29:26 0° 154° (SSE) 3,264 6.0 -7.6°
Reaches altitude 10° 19:32:04 10° 143° (SE) 2,330 5.2 -8.1°
Maximum altitude 19:36:28 29° 84° (E) 1,406 3.8 -9.1°
Drops below altitude 10° 19:40:50 10° 24° (NNE) 2,304 5.2 -10.0°
Sets 19:43:24 0° 13° (NNE) 3,221 6.1 -10.5°
